Flag for Switzerland Weather past 2 weeks in Sion, Valais, Switzerland

Now
41 °F

Quite cool.


Feels Like: 41 °F
Forecast: 37 / 57 °F
Wind: 1 mph from West

Location: Sion

Current Time: Oct 23, 2014 at 11:41:56 PM

Latest Report: Oct 23, 2014 at 10:00 PM


Visibility: N/A

Pressure: 30.26 "Hg

Humidity: 81%

Dew point: 35 °F

Location of SionLocation

Historic Weather in Sion — Graph

°F

Sion temperature yesterday

Maximum temperature yesterday: 51 °F (at 1:00 AM)
Minimum temperature yesterday: 42 °F (at 11:00 PM)
Average temperature yesterday: 45 °F

Past Weeks' High & Low Weather Summary

 TemperatureHumidityPressure
High78 °F (Oct 9, 3:00 PM)99% (Oct 14, 3:00 AM)30.37 "Hg (Oct 14, 3:00 AM)
Low36 °F (Oct 23, 7:00 AM)33% (Oct 9, 2:00 PM)29.75 "Hg (Oct 15, 4:00 PM)
Average57 °F78%30.02 "Hg
* Reported Midnight between Oct 8 and Oct 9 — Oct 23 10:00 PM, Sion, Weather by CustomWeather, © 2014

Note: Actual official high and low records may vary slightly from our data, if they occured in-between our weather recording intervals... More about our weather records

Advertising

Sion weather history for previous 24 hours

 ConditionsComfort  
Time TempWeatherWind HumidityBarometerVisibility
10:00 PM
Oct 23
41 °FQuite cool.1 mph81%30.26 "HgN/A
9:00 PM44 °FQuite cool.2 mph74%30.24 "HgN/A
8:00 PM45 °FClear.2 mph70%30.22 "Hg16 mi
7:00 PM49 °FCool.1 mph59%30.18 "HgN/A
6:00 PM52 °FCool.14 mph52%30.15 "HgN/A
5:00 PM54 °FSunny.16 mph49%30.14 "Hg16 mi
4:00 PM55 °FCool.18 mph47%30.15 "HgN/A
3:00 PM54 °FCool.16 mph44%30.18 "HgN/A
2:00 PM54 °FPassing clouds.14 mph45%30.21 "Hg16 mi
1:00 PM52 °FCool.13 mph50%30.24 "HgN/A
12:00 PM47 °FCool.2 mph63%30.29 "HgN/A
11:00 AM43 °FPassing clouds.1 mph74%30.31 "Hg16 mi
10:00 AM39 °FChilly.1 mph91%30.34 "HgN/A
9:00 AM36 °FChilly.1 mph93%30.36 "HgN/A
8:00 AM36 °FChilly.1 mph91%30.35 "HgN/A
7:00 AM36 °FChilly.1 mph94%30.36 "HgN/A
6:00 AM36 °FChilly.1 mph96%30.36 "HgN/A
5:00 AM37 °FPassing clouds.1 mph93%30.36 "Hg9 mi
4:00 AM40 °FQuite cool.1 mph84%30.36 "HgN/A
3:00 AM42 °FQuite cool.3 mph80%30.37 "HgN/A
2:00 AM42 °FOvercast.1 mph81%30.37 "Hg9 mi
1:00 AM42 °FQuite cool.2 mph80%30.37 "HgN/A
12:00 AM42 °FQuite cool.10 mph77%30.36 "HgN/A
11:00 PM
Oct 22
42 °FQuite cool.9 mph76%30.36 "HgN/A
Weather by CustomWeather, © 2014

See weather overviewHow to use our weather pages